Find STARLINK-37932

NORAD ID: 799500994 Int'l Des: 2026-135U Constellation: starlink operational

当前视图

正在加载3D地球...

About STARLINK-37932

STARLINK-37932 (NORAD 799500994) is a starlink constellation satellite launched Jun 8, 2026

关于 STARLINK-37932

正在加载描述...

即将过境

Passes for default location (London). Set your location on the main map for personalized predictions.

高度历史

Loading altitude history...

两行轨道根数

1 99999C 2026135U 26167.14145832 .00446730 00000-0 686560-4 0 1670
2 99999 97.2790 193.9527 0010747 262.9946 185.2162 16.03967422 10
Epoch: Jun 16, 2026 • Age: 5 hours